Regional Weather Roundup
Issued by NWS

Home | Current Version | Previous Version | Text Only | Print | Product List | Glossary On
Versions: 1 2 3 4 5 6 7 8 9 10 11 12 13 14 15 16 17 18 19 20 21 22 23 24 25 26 27 28 29 30 31 32 33 34 35 36 37 38 39 40 41 42 43 44 45 46 47 48 49 50
000
ASUS45 KPSR 041800
RWRAZ

ARIZONA HOURLY REGIONAL WEATHER ROUNDUP
NATIONAL WEATHER SERVICE PHOENIX AZ
1100 AM MST TUE AUG 04 2015

NOTE: FAIR INDICATES FEW OR NO CLOUDS BELOW 12,000 FEET WITH NO
SIGNIFICANT WEATHER AND/OR OBSTRUCTIONS TO VISIBILITY.

AZZ001>003-036-041900-
NORTHWEST ARIZONA

CITY           SKY/WX    TMP DP  RH WIND       PRES   REMARKS
KINGMAN        SUNNY     94  36  13 SW10G23   30.06R
6HR MIN TEMP:  66; 6HR MAX TEMP:  96;

$$

AZZ004>008-015-016-018-041900-
NORTH CENTRAL ARIZONA

CITY           SKY/WX    TMP DP  RH WIND       PRES   REMARKS
GRAND CANYON   SUNNY     81  33  17 S8G16     30.31S
6HR MIN TEMP:  43; 6HR MAX TEMP:  82;

WILLIAMS       SUNNY     81  34  18 SW12G18   30.38F
PRESCOTT       MOSUNNY   88  41  19 S9        30.19S
6HR MIN TEMP:  62; 6HR MAX TEMP:  88;

FLAGSTAFF      NOT AVBL
PAYSON         SUNNY     88  39  18 VRB6      30.22S
PAGE           SUNNY     88  49  25 VRB5      30.11F
6HR MIN TEMP:  71; 6HR MAX TEMP:  88;

$$

AZZ009>014-017-041900-
NORTHEAST ARIZONA

CITY           SKY/WX    TMP DP  RH WIND       PRES   REMARKS
WINSLOW        NOT AVBL
SAINT JOHNS    SUNNY     85  43  22 VRB6      30.24S
6HR MIN TEMP:  61; 6HR MAX TEMP:  85;

$$

AZZ023-041900-
GREATER PHOENIX AREA

CITY           SKY/WX    TMP DP  RH WIND       PRES   REMARKS
PHOENIX        MOSUNNY  102  49  16 VRB3      29.88R
6HR MIN TEMP:  88; 6HR MAX TEMP: 102;

GLENDALE       SUNNY    100  52  19 SE5       29.89F
LUKE AFB       SUNNY    100  49  17 SE5       29.87F
6HR MIN TEMP:  83; 6HR MAX TEMP: 100;

DEER VALLEY    SUNNY     98  48  18 CALM      29.90S
6HR MIN TEMP:  79; 6HR MAX TEMP: 100;

SCOTTSDALE     SUNNY    100  46  16 S6        29.92S
6HR MIN TEMP:  86; 6HR MAX TEMP: 100;

MESA-FALCON    MOSUNNY  100  45  15 SW9       29.90S
MESA-GATEWAY   SUNNY     99  50  19 VRB6      29.92S
CHANDLER       SUNNY    100  50  18 CALM      29.90S
$$

AZZ027-028-041900-
SOUTHWEST MARICOPA COUNTY AND PINAL COUNTY

CITY           SKY/WX    TMP DP  RH WIND       PRES   REMARKS
CASA GRANDE    SUNNY    100  52  19 CALM      29.90S
6HR MIN TEMP:  79; 6HR MAX TEMP: 100;

GILA BEND      SUNNY    102  45  14 VRB5      29.86S
6HR MIN TEMP:  81; 6HR MAX TEMP: 102;

$$

AZZ503-504-507>509-041900-
SOUTHEAST ARIZONA

CITY           SKY/WX    TMP DP  RH WIND       PRES   REMARKS
TUCSON         SUNNY     96  53  23 CALM      30.01F
6HR MIN TEMP:  77; 6HR MAX TEMP:  97;

DAVIS-MONTHAN  SUNNY     94  56  27 VRB3      29.99F
6HR MIN TEMP:  75; 6HR MAX TEMP:  94;

RYAN FIELD     SUNNY     99  54  22 N8        30.00S
NOGALES        SUNNY     90  58  33 VRB5      30.11S
6HR MIN TEMP:  64; 6HR MAX TEMP:  90;

SIERRA VISTA   SUNNY     87  50  27 NE8       30.18S
6HR MIN TEMP:  71; 6HR MAX TEMP:  87;

SAFFORD        SUNNY     97  44  16 VRB7      30.01F
6HR MIN TEMP:  70; 6HR MAX TEMP:  98;

$$

AZZ020-021-025-026-031-041900-
SOUTHWEST ARIZONA

CITY           SKY/WX    TMP DP  RH WIND       PRES   REMARKS
YUMA           MOSUNNY  100  64  30 SE12      29.83R HX 102
6HR MIN TEMP:  83; 6HR MAX TEMP: 100;

$$

CAZ031-033-041-043-047-048-061-041900-
SOUTHERN CALIFORNIA

CITY           SKY/WX    TMP DP  RH WIND       PRES   REMARKS
DOWNTOWN L.A.  SUNNY     83  61  47 VRB3      29.92S
6HR MIN TEMP:  67; 6HR MAX TEMP:  84;

L.A. AIRPORT   PTSUNNY   79  64  60 W9        29.94R
6HR MIN TEMP:  66; 6HR MAX TEMP:  79;

SAN DIEGO      MOSUNNY   76  65  68 NW7       29.95S
6HR MIN TEMP:  69; 6HR MAX TEMP:  77;

BURBANK        SUNNY     84  60  44 E8        29.94S
6HR MIN TEMP:  68; 6HR MAX TEMP:  84;

ONTARIO        MOSUNNY   84  57  39 SW6       29.95R
6HR MIN TEMP:  67; 6HR MAX TEMP:  85;

RIVERSIDE      SUNNY     85  60  42 W6        29.94S
6HR MIN TEMP:  67; 6HR MAX TEMP:  85;

PALM SPRINGS   SUNNY    103  39  11 NE6       29.85R
6HR MIN TEMP:  76; 6HR MAX TEMP: 103;

EL CENTRO NAS  MOSUNNY  102  52  18 VRB5      29.82S
6HR MIN TEMP:  74; 6HR MAX TEMP: 102;

IMPERIAL       SUNNY    101  54  20 VRB6      29.80S
6HR MIN TEMP:  77; 6HR MAX TEMP: 101;

BLYTHE         SUNNY    100  56  23 S10       29.83S
6HR MIN TEMP:  79; 6HR MAX TEMP: 100;

$$

NVZ020-UTZ003-041900-
SOUTHERN NEVADA-UTAH

CITY           SKY/WX    TMP DP  RH WIND       PRES   REMARKS
LAS VEGAS      NOT AVBL
SALT LAKE CITY MOSUNNY   78  55  44 CALM      30.10F
6HR MIN TEMP:  59; 6HR MAX TEMP:  78;

$$

NMZ009-TXZ055-041900-
NEW MEXICO-WEST TEXAS

CITY           SKY/WX    TMP DP  RH WIND       PRES   REMARKS
ALBUQUERQUE    MOSUNNY   84  47  27 VRB3      30.20F
6HR MIN TEMP:  64; 6HR MAX TEMP:  84;

EL PASO        MOSUNNY   89  56  32 SW5       30.09S
6HR MIN TEMP:  72; 6HR MAX TEMP:  89;

$$


........................KEY........................
SKY/WX - SKY CONDITION/WEATHER
TMP    - TEMPERATURE IN FAHRENHEIT
DP     - DEW POINT IN FAHRENHEIT
RH     - RELATIVE HUMIDITY IN PERCENT
WIND   - DIRECTION AND SPEED IN MILES PER HOUR (MPH)
VRB    - VARIABLE WIND DIRECTION
PRES   - MEAN SEA LEVEL PRESSURE IN INCHES OF MERCURY
         F - FALLING PRESSURE   R - RISING PRESSURE
         S - STEADY PRESSURE
VSB    - VISIBILITY IN MILES
HX     - HEAT INDEX IN FAHRENHEIT
WCI    - WIND CHILL INDEX IN FAHRENHEIT
TC     - TEMPERATURE IN CELSIUS WHICH IS ALSO KNOWN AS
         TEMPERATURE IN CENTIGRADE
AFB    - AIR FORCE BASE
         LUKE AFB IS LUKE AIR FORCE BASE
         DAVIS-MONTHAN IS DAVIS-MONTHAN AIR FORCE BASE
NAS    - NAVAL AIR STATION
         EL CENTRO NAS IS EL CENTRO NAVAL AIR STATION
N/A    - NOT AVAILABLE



USA.gov is the U.S. government's official web portal to all federal, state and local government web resources and services.